Location: Wallace
(32.1971°N, 83.4971°W)
Time: 03:29:40
(UTC+00:00)

Daily predictions for brighter satellites

Satellite Brightness Start Highest point End
(mag) Time Altitude Azimuth Time Altitude Azimuth Time Altitude Azimuth
Okean O Rocket 4.4 00:00:56 10° SW 00:04:15 21° W 00:07:35 10° NW
COSMO-SKYMED 1 3.8 00:00:19 10° N 00:04:26 44° WNW 00:08:33 10° SW
IUS-26 SRM-1 3.7 00:00:27 10° WSW 00:05:04 29° S 00:06:05 22° SSE
OAO 2 Rocket 3.2 00:00:26 10° WSW 00:05:25 88° NNW 00:07:50 31° ENE
SeaSat 1 4.2 00:11:24 16° NE 00:11:24 16° NE 00:13:11 10° NNE
YAOGAN 1 2.5 00:09:02 10° SSE 00:13:15 58° ENE 00:17:30 10° N
Cosmos 2219 3.4 00:09:05 10° N 00:14:39 48° ENE 00:17:55 23° SE
S3M 3.8 00:12:35 10° S 00:18:38 72° E 00:24:44 10° N
Cosmos 1812 Rocket 3.8 00:16:17 10° SSE 00:20:07 45° ESE 00:20:07 45° ESE
CZ-2C R/B 3.2 00:16:47 10° SSE 00:22:35 72° ENE 00:28:18 10° N
Cosmos 1315 Rocket 2.6 00:19:51 10° S 00:23:43 69° E 00:24:26 54° NE
Cosmos 1892 2.5 00:22:16 10° N 00:26:08 72° E 00:26:13 71° E
CZ-2D R/B 4.1 00:22:27 10° S 00:26:10 50° W 00:29:52 10° NNW
Cosmos 968 Rocket 3.8 00:23:40 10° N 00:28:17 44° ENE 00:28:17 44° ENE
Cosmos 2369 3.6 00:23:05 10° S 00:28:46 72° ESE 00:32:24 23° NNE
Hubble Space Telescope 3.4 00:27:18 10° SW 00:29:20 13° SSW 00:31:22 10° S
Delta 2 Rocket 4.0 00:24:39 10° WNW 00:30:05 77° NNE 00:31:32 51° E
Atlas Centaur 2 3.1 00:23:26 10° WSW 00:31:54 70° SSE 00:35:21 39° E
Meteor 2-10 Rocket 3.7 00:26:28 10° SSW 00:31:55 77° W 00:37:10 10° N
Timation 2 Rocket 4.2 00:25:16 10° NNW 00:31:59 80° WSW 00:38:49 10° SSE
Okean-O 3.2 00:30:06 10° S 00:34:27 58° W 00:38:50 10° NNW
CRYOSAT 2 4.2 00:30:12 10° N 00:35:04 86° E 00:39:55 10° S
ARGOS 3.7 00:36:35 41° NE 00:36:35 41° NE 00:40:39 10° N
NOSS 3-3 (A) 4.0 00:31:43 10° SW 00:37:17 69° WNW 00:41:50 19° NNE
NOSS 3-3 (C) 4.0 00:31:47 10° SW 00:37:25 69° WNW 00:41:57 19° NNE
Meteor 2-1 Rocket 4.2 00:34:36 10° SSW 00:40:07 77° W 00:45:39 10° N
Cosmos 1486 Rocket 3.9 00:35:45 10° N 00:41:02 64° ENE 00:41:02 64° ENE
Delta 142 4.5 00:38:43 10° W 00:43:39 56° S 00:44:45 48° SE
SJ-11-01 4.1 00:46:20 86° NNE 00:46:20 86° NNE 00:50:56 10° NNW
MOS 1 Rocket 4.1 00:45:22 10° N 00:49:57 52° WNW 00:54:50 10° SSW
CSL-04 Rocket 3.6 00:46:02 17° SSE 00:50:29 90° W 00:56:03 10° NNW
Cosmos 2227 Rocket 2.0 00:45:23 10° NNW 00:51:03 77° ENE 00:51:13 76° E
GEOS 3 Rocket 4.1 00:57:17 48° N 00:57:17 48° N 01:01:22 10° NNW
Cosmos 1697 Rocket 3.6 00:56:41 10° SW 01:02:02 47° WNW 01:05:59 18° N
OAO 3 Rocket 3.8 00:57:18 10° WNW 01:01:04 53° W 01:01:04 53° W
H-2A R/B 2.5 01:03:04 25° S 01:06:11 62° W 01:11:35 10° NNW
CZ-4 R/B 4.5 01:21:34 10° WSW 01:23:26 13° W 01:25:18 10° WNW
Cosmos 1980 Rocket 3.0 01:18:17 10° SSW 01:22:19 45° SW 01:22:19 45° SW
Cosmos 2297 Rocket 3.5 01:25:56 10° NW 01:31:01 35° WSW 01:32:04 33° SW
Milstar 3 3.2 01:29:13 10° W 01:34:44 57° SW 01:34:44 57° SW
Atlas Centaur 2 4.2 02:13:16 10° W 02:17:56 36° W 02:17:56 36° W
CENTAUR R/B 4.0 08:57:17 28° NNE 08:57:17 28° NNE 09:00:18 10° NNE
CZ-2C R/B 4.5 09:03:42 10° NNE 09:05:23 21° NE 09:05:23 21° NE
Cosmos 1833 Rocket 3.8 09:08:56 39° ESE 09:09:37 41° ESE 09:14:52 10° NE
Lacrosse 5 rocket 4.2 09:22:55 10° NE 09:22:55 10° NE 09:22:57 10° NE
H-2A R/B 3.8 09:18:20 10° SE 09:20:50 29° SE 09:20:50 29° SE
Cosmos 2344 4.5 09:27:00 30° NNW 09:27:00 30° NNW 09:31:57 10° NNE
Cosmos 2142 Rocket 4.5 09:21:44 10° N 09:28:00 81° E 09:34:21 10° S
Cosmos 2082 Rocket 3.8 09:23:49 10° SSE 09:28:42 32° ESE 09:33:35 10° NE
ATLAS 3B R/B 2.8 09:36:11 26° S 09:40:04 67° ESE 09:46:36 10° NE
EPKM 4.1 09:43:42 42° SSW 09:45:26 55° SSE 10:05:57 10° E
COSMOS 2406 3.2 09:48:10 62° NW 09:48:10 62° NW 09:53:21 10° NNE
Cosmos 2279 Rocket 3.8 09:46:52 10° N 09:53:02 72° W 09:59:10 10° S
ADEOS Rocket 2.6 09:51:44 10° S 09:57:17 80° WSW 10:02:48 10° NNW
Cosmos 292 Rocket 3.6 09:57:37 48° NNW 09:58:58 82° WSW 10:03:48 10° SSE
Cosmos 1697 Rocket 4.2 09:55:13 10° N 10:00:20 34° ENE 10:05:26 10° SE
ERS-2 3.0 09:58:41 10° SSE 10:02:12 49° ENE 10:05:43 10° N
BREEZE-M DEB (TANK) 3.6 10:04:38 21° NNE 10:04:38 21° NNE 10:06:20 10° ENE
Cosmos 44 Rocket 4.0 10:04:23 13° NNW 10:08:50 57° ENE 10:13:55 10° SE
Cosmos 1908 3.1 10:08:35 34° NNW 10:10:11 82° W 10:14:05 10° S
Cosmos 1461 3.0 10:10:09 56° W 10:10:43 62° WNW 10:15:18 10° NNE
Cosmos 2251 Rocket 3.7 10:09:19 10° S 10:14:39 75° ESE 10:20:00 10° NNE
FENGYUN 3A 3.6 10:09:23 10° N 10:14:51 85° WNW 10:20:17 10° SSW
SL-14 R/B 3.3 10:11:01 10° S 10:14:56 79° E 10:18:56 10° N
ISS -1.4 10:19:03 14° N 10:19:03 14° N 10:19:58 10° N
USA 290 2.2 10:18:28 27° S 10:20:02 81° ESE 10:23:15 10° NNE
Cosmos 1980 Rocket 4.2 10:17:31 10° N 10:22:11 27° ENE 10:26:51 10° ESE
DELTA 2 R/B (1) 3.6 10:24:50 28° WNW 10:27:56 81° NNE 10:33:34 10° ESE
Cosmos 1300 3.8 10:26:21 10° N 10:30:01 45° E 10:33:40 10° SSE
CZ-2C R/B 2.1 10:30:29 23° SSW 10:30:35 23° SSW 10:33:14 10° SSE
ALOS 2.4 10:31:14 10° N 10:35:42 48° WNW 10:40:10 10° SSW
Cosmos 1626 2.7 10:35:57 10° SSW 10:39:18 33° W 10:42:41 10° NNW
Cosmos 1726 Rocket 4.1 10:34:56 10° N 10:39:22 64° E 10:43:46 10° SSE
Cosmos 1484 Rocket 3.4 10:38:18 10° N 10:41:45 32° WNW 10:45:08 10° SW
GOES 2 Rocket 4.4 10:41:08 16° WSW 10:45:48 60° S 10:53:26 10° E
CENTAUR R/B 4.2 10:44:29 12° NW 10:45:48 13° NW 10:48:45 10° N
CZ-2C R/B 4.2 10:43:27 10° NNW 10:44:45 13° NW 10:44:45 13° NW
H-2A R/B 4.3 10:47:17 10° NNE 10:50:54 39° E 10:54:32 10° S
Cosmos 1092 Rocket 4.0 10:45:05 10° SSW 10:51:06 58° W 10:57:13 10° N
Cosmos 2228 3.0 10:47:01 10° NNW 10:51:20 63° W 10:55:39 10° S
CZ-4B R/B 2.9 10:47:44 10° N 10:51:49 74° WNW 10:56:05 10° SSW
Cosmos 1833 Rocket 3.8 10:50:45 15° W 10:53:38 22° WNW 10:57:59 10° N
COSMO-SKYMED 1 2.7 10:50:00 10° SSE 10:54:18 77° ENE 10:58:39 10° N
Cosmos 1606 Rocket 3.6 10:50:03 10° NNW 10:54:28 62° W 10:58:52 10° S
ADEOS 4.3 10:50:07 10° N 10:54:39 31° WNW 10:59:10 10° SW
Geosat 4.3 10:53:38 10° S 10:58:26 46° WSW 11:03:15 10° NW
H-2A R/B 4.0 10:56:41 10° WSW 10:57:54 12° WSW 10:57:54 12° WSW
Meteor 1-24 Rocket 4.0 10:54:50 10° SSW 11:00:04 44° WNW 11:05:32 10° N
ATLAS CENTAUR R/B 3.1 10:58:17 10° S 11:01:59 35° ESE 11:05:32 10° NE
CZ-3 R/B 2.9 10:42:23 13° W 11:03:20 73° S 11:09:28 10° E
Cosmos 407 Rocket 3.9 10:58:53 10° S 11:03:56 66° ESE 11:09:01 10° NNE
Meteor 1-31 Rocket 3.9 11:02:39 10° NNW 11:05:49 24° WNW 11:08:58 10° SW
Envisat 4.3 11:02:48 10° NNE 11:07:40 45° E 11:12:29 10° S
Meteor PRIRODA 3.8 11:05:04 10° N 11:08:34 46° WNW 11:12:05 10° SSW
CZ-4B R/B 2.7 11:06:37 10° SSW 11:09:19 21° W 11:12:01 10° NW
Cosmos 1140 Rocket 4.1 11:06:31 10° S 11:11:34 61° ESE 11:16:37 10° NNE
Cosmos 2369 3.7 11:06:46 10° NNW 11:12:21 63° WSW 11:17:53 10° S
Cosmos 2082 Rocket 3.0 11:07:57 10° WSW 11:12:41 28° WNW 11:17:26 10° N
Okean 1-7 Rocket 3.8 11:08:54 10° SSW 11:13:19 51° W 11:17:45 10° N
PSLV R/B 3.9 11:14:32 10° N 11:18:39 84° WNW 11:22:44 10° SSW
Cosmos 1455 4.3 11:15:47 10° NNE 11:19:17 32° E 11:22:46 10° SE
SL-27 R/B 3.8 11:19:12 10° S 11:22:38 47° ESE 11:26:06 10° NNE
Cosmos 220 Rocket 4.5 11:18:49 10° NNW 11:22:59 40° WSW 11:27:05 10° S
CZ-4B DEB 4.4 11:18:22 10° NNE 11:23:53 81° ESE 11:29:19 10° S
Cosmos 2058 Rocket 3.2 11:20:34 10° NNW 11:24:59 59° W 11:29:21 10° S
Gblst 52 Del rocket 4.3 11:19:30 10° SW 11:25:03 65° NW 11:31:13 10° NE
